WetterOnline ( https://www.wetteronline.de )

Wetter aktuell Nantes

Aktuelles Wetter: La Roche-sur-Yon (90m)

6-stündlich | Neueste Meldungen
Ortszeit Temperatur Wetter
Mo, 22.07. 20:00 19.3° C bedeckt
Mo, 22.07. 14:00 21.3° C bedeckt
Mo, 22.07. 8:00 16.2° C bedeckt
Mo, 22.07. 2:00 14.8° C -
So, 21.07. 20:00 20.2° C -
So, 21.07. 14:00 22.9° C bedeckt
So, 21.07. 8:00 18.1° C wolkig
So, 21.07. 2:00 17.9° C bewölkt
Ortszeit Temperatur Wetter
Mo, 22.07. 22:00 18.0° C bedeckt
Mo, 22.07. 21:00 19.0° C bedeckt
Mo, 22.07. 20:00 19.3° C bedeckt
Mo, 22.07. 19:00 19.8° C bedeckt
Mo, 22.07. 18:00 20.2° C bedeckt
Mo, 22.07. 17:00 20.8° C bedeckt
Mo, 22.07. 16:00 20.4° C bedeckt
Ortszeit Relative Feuchte Sichtweite
Mo, 22.07. 20:00 82% 40 km
Mo, 22.07. 14:00 66% 40 km
Mo, 22.07. 8:00 91% 35 km
Mo, 22.07. 2:00 90% 45 km
So, 21.07. 20:00 68% 11 km
So, 21.07. 14:00 71% 20 km
So, 21.07. 8:00 93% 19 km
So, 21.07. 2:00 97% 27 km
Ortszeit Relative Feuchte Sichtweite
Mo, 22.07. 22:00 93% 19 km
Mo, 22.07. 21:00 85% 40 km
Mo, 22.07. 20:00 82% 40 km
Mo, 22.07. 19:00 80% 19 km
Mo, 22.07. 18:00 75% 30 km
Mo, 22.07. 17:00 74% 30 km
Mo, 22.07. 16:00 76% 29 km
Ortszeit Niederschlagsmenge Niederschlagsart
Mo, 22.07. 20:00 0.0 l/m2 in 12 Std. -
Mo, 22.07. 14:00 0.0 l/m2 in 6 Std. -
Mo, 22.07. 8:00 0.0 l/m2 in 12 Std. -
Mo, 22.07. 2:00 0.0 l/m2 in 6 Std. -
So, 21.07. 20:00 0.0 l/m2 in 12 Std. -
So, 21.07. 14:00 0.0 l/m2 in 6 Std. -
So, 21.07. 8:00 1 l/m2 in 12 Std. -
So, 21.07. 2:00 1 l/m2 in 6 Std. -
Ortszeit Niederschlagsmenge Niederschlagsart
Mo, 22.07. 22:00 0.0 l/m2 in 1 Std. -
Mo, 22.07. 21:00 0.0 l/m2 in 1 Std. -
Mo, 22.07. 20:00 keine Meldung -
Mo, 22.07. 19:00 0.0 l/m2 in 1 Std. -
Mo, 22.07. 18:00 0.0 l/m2 in 1 Std. -
Mo, 22.07. 17:00 keine Meldung -
Mo, 22.07. 16:00 0.0 l/m2 in 1 Std. -
Ortszeit Stärke Spitze Richtung
km/h Bft. km/h Grad Sektor
Mo, 22.07. 20:00 15 3 30 240° SW
Mo, 22.07. 14:00 19 3 30 250° W
Mo, 22.07. 8:00 6 1 9 180° S
Mo, 22.07. 2:00 9 2 19 270° W
So, 21.07. 20:00 22 4 37 300° NW
So, 21.07. 14:00 19 3 30 320° NW
So, 21.07. 8:00 13 3 19 300° NW
So, 21.07. 2:00 4 1 17 250° W
Ortszeit Stärke Spitze Richtung
km/h Bft. km/h Grad Sektor
Mo, 22.07. 22:00 9 2 22 230° SW
Mo, 22.07. 21:00 11 2 24 240° SW
Mo, 22.07. 20:00 15 3 30 240° SW
Mo, 22.07. 19:00 13 3 30 240° SW
Mo, 22.07. 18:00 17 3 33 250° W
Mo, 22.07. 17:00 17 3 33 240° SW
Mo, 22.07. 16:00 19 3 31 250° W
Ortszeit Untergrenze Bedeckung Gattung
total tief tief mittel hoch
Mo, 22.07. 20:00 - 8/8 - - - -
Mo, 22.07. 14:00 - 8/8 - - - -
Mo, 22.07. 8:00 - 8/8 - - - -
Mo, 22.07. 2:00 - - - - - -
So, 21.07. 20:00 - - - - - -
So, 21.07. 14:00 - 8/8 - - - -
So, 21.07. 8:00 - 6/8 - - - -
So, 21.07. 2:00 - 7/8 - - - -
Ortszeit Bedeckungsgrad in Achtel und Wolkenuntergrenze
Mo, 22.07. 22:00 8
Mo, 22.07. 21:00 8
Mo, 22.07. 20:00 8
Mo, 22.07. 19:00 8
Mo, 22.07. 18:00 8
Mo, 22.07. 17:00 8
Mo, 22.07. 16:00 8
Ortszeit Luftdruck NN (hPa) Tendenz (hPa in 3 Std.)
Mo, 22.07. 20:00 1023 - 0,3
Mo, 22.07. 14:00 1022 + 0,3
Mo, 22.07. 8:00 1022 + 0,8
Mo, 22.07. 2:00 1021 + 1,0
So, 21.07. 20:00 1018 + 1,7
So, 21.07. 14:00 1014 + 1,5
So, 21.07. 8:00 1011 + 1,8
So, 21.07. 2:00 1009 - 0,1
Ortszeit Luftdruck NN (hPa) Tendenz (hPa in 3 Std.)
Mo, 22.07. 22:00 1023 + 0,4
Mo, 22.07. 21:00 1023 0,0
Mo, 22.07. 20:00 1023 - 0,3
Mo, 22.07. 19:00 1023 - 0,3
Mo, 22.07. 18:00 1023 + 0,3
Mo, 22.07. 17:00 1023 + 0,3
Mo, 22.07. 16:00 1023 + 0,5
Ortszeit Schneehöhe (cm)
Mo, 22.07. 20:00 -
Mo, 22.07. 14:00 -
Mo, 22.07. 8:00 -
Mo, 22.07. 2:00 -
So, 21.07. 20:00 -
So, 21.07. 14:00 -
So, 21.07. 8:00 -
So, 21.07. 2:00 -
Ortszeit Schneehöhe (cm)
Mo, 22.07. 22:00 -
Mo, 22.07. 21:00 -
Mo, 22.07. 20:00 -
Mo, 22.07. 19:00 -
Mo, 22.07. 18:00 -
Mo, 22.07. 17:00 -
Mo, 22.07. 16:00 -
Link zu dieser Seite / Seite empfehlen

Das Wetter in ...